Regional Weather Roundup
Issued by NWS

Home | Current Version | Previous Version | Graphics & Text | Print | Product List | Glossary On
Versions: 1 2 3 4 5 6 7 8 9 10 11 12 13 14 15 16 17 18 19 20 21 22 23 24 25 26 27 28 29 30 31 32 33 34 35 36 37 38 39 40 41 42 43 44 45 46 47 48 49 50
000
ASUS43 KIND 032009
RWRIN

WEATHER ROUNDUP FOR INDIANA
NATIONAL WEATHER SERVICE INDIANAPOLIS IN
300 PM EST TUE MAR 03 2015

NOTE: "FAIR" INDICATES FEW OR NO CLOUDS BELOW 12,000 FEET WITH NO
SIGNIFICANT WEATHER AND/OR OBSTRUCTIONS TO VISIBILITY.

* - STATION DOES NOT REPORT WEATHER SUCH AS PRECIPITATION OR FOG.

+ - STATION NOT QUALITY CONTROLLED BY THE NATIONAL WEATHER SERVICE.
    USE DATA WITH CAUTION...ESPECIALLY DEWPOINT AND RELATIVE
    HUMIDITY OBSERVATIONS.

INZ001>003-010>013-019-020-032100-
NORTHWEST INDIANA

CITY           SKY/WX    TMP DP  RH WIND       PRES   REMARKS
GARY /AIRPORT/ CLOUDY    37  32  81 SW14G28   29.64  FOG
KNOX *+          N/A     34  30  86 SW16      29.64F WCI  23
LA PORTE +     CLOUDY    36  36 100 SW14      29.63F FOG
MICHIGAN CITY+ CLOUDY    34  32  93 SW16G23   29.64F FOG     WCI  23
MONTICELLO +   CLOUDY    37  37  97 SW15G24   29.68F
RENSSELAER +   CLOUDY    36  36 100 SW20G30   29.67F FOG
VALPARAISO     CLOUDY    35  34  96 SW21G26   29.64F FOG     WCI  24

$$

LMZ046-743>745-032100-
SOUTHERN LAKE MICHIGAN

STATION/POSITION TIME  TEMP WIND        PRES
                       AIR  DIR/SP/G
                 (UTC) (F)  (DEG/KT/KT) (MB)
MICHIGAN CITY    2000   35  200/ 19/ 23   N/A

$$

INZ004-005-014>016-021>024-032100-
NORTH CENTRAL INDIANA

CITY           SKY/WX    TMP DP  RH WIND       PRES   REMARKS
ELKHART        DRIZZLE   34  30  86 SW10G18   29.63F WCI  26
GOSHEN         CLOUDY    35  32  88 SW17      29.63F FOG     WCI  25
LOGANSPORT +   CLOUDY    36  34  93 SW17      29.69F FOG
PERU/GRISSOM   LGT RAIN  36  35  95 SW20      29.66F
ROCHESTER +    CLOUDY    37  37 100 SW12G17   29.66F FOG
SOUTH BEND     FOG       35  32  88 SW15G22   29.64F VSB 1   WCI  25
WARSAW +       DRIZZLE   34  34 100 SW13      29.66R WCI  25

$$

INZ006>009-017-018-025>027-032100-
NORTHEAST INDIANA

CITY           SKY/WX    TMP DP  RH WIND       PRES   REMARKS
ANGOLA *+      CLOUDY    34  32  93 SW12      29.64R WCI  25
AUBURN +       CLOUDY    34  32  93 SW8G17    29.66S FOG     WCI  27
FORT WAYNE     DRIZZLE   35  33  92 SW22G28   29.66F FOG     WCI  23
HUNTINGTON +   LGT RAIN  35  32  88 SW14G21   29.66F WCI  26

$$

INZ028-029-035-036-043>045-051>053-032100-
WEST CENTRAL INDIANA

CITY           SKY/WX    TMP DP  RH WIND       PRES   REMARKS
CRAWFORDSVL +  CLOUDY    36  33  91 SW16      29.74S FOG
GREENCASTLE +  CLOUDY    37  36  93 SW6       29.75F FOG
LAFAYETTE      CLOUDY    38  36  92 SW13      29.71F
TERRE HAUTE    CLOUDY    39  39 100 SW9       29.77F FOG

$$

INZ030>032-037>040-046>048-054>057-064-065-032100-
CENTRAL INDIANA

CITY           SKY/WX    TMP DP  RH WIND       PRES   REMARKS
ANDERSON       CLOUDY    36  36 100 S12G23    29.73F FOG
CP ATTERBURY + LGT RAIN  45  43  93 SW12G18   29.76F
COLUMBUS       RAIN      39  37  93 S7        29.78F FOG
FRANKFORT +    DRIZZLE  N/A N/A N/A S20       29.72F
GREENWOOD *+   CLOUDY    41  39  93 SW10G16   29.75F
INDIANAPOLIS   CLOUDY    40  38  93 SW15      29.73F FOG
-EAGLE CREEK   CLOUDY    39  39 100 SW9       29.73F FOG
KOKOMO *+      FAIR      37  34  87 SW21G28   29.69F
MARION +       CLOUDY    36  35  96 SW22G29   29.69F
MT COMFORT *+  CLOUDY    36 N/A N/A S9        29.74F
SHELBYVILLE    LGT RAIN  38  36  92 S8        29.75F FOG
ZIONSVILLE +   CLOUDY    40  37  87 SW21G26   29.72F FOG

$$

INZ033-034-041-042-049-050-058-059-032100-
EAST CENTRAL INDIANA

CITY           SKY/WX    TMP DP  RH WIND       PRES   REMARKS
MUNCIE         CLOUDY    38  36  92 SW17G26   29.70F FOG

$$

INZ060-061-067>069-081>083-085>088-032100-
SOUTHWEST INDIANA

CITY           SKY/WX    TMP DP  RH WIND       PRES   REMARKS
EVANSVILLE     FOG       48  46  93 SW16      29.84F VSB 1
HUNTINGBURG *+ CLOUDY    46  45  93 S15       29.83F VSB 1
WASHINGTON +   LGT RAIN  44  40  87 SW18G26   29.78F

$$

INZ062-063-066-070>080-084-089>092-032100-
SOUTH CENTRAL AND SOUTHEAST INDIANA

CITY           SKY/WX    TMP DP  RH WIND       PRES   REMARKS
BLOOMINGTON    LGT RAIN  45  44  97 SW16G24   29.77F FOG
NORTH VERNON + HVY RAIN  41  41 100 SW10      29.79F
SEYMOUR +      CLOUDY    43  43 100 SW13      29.78F FOG

$$




USA.gov is the U.S. government's official web portal to all federal, state and local government web resources and services.